Location: Poigny-la-Forêt
(48.6876°N, 1.7701°E)
Time: 09:11:45
(UTC+02:00)

ISS - Visible Passes

Search period start: 21 October 2019 00:00
Search period end: 30 October 2019 23:00
Orbit: 411 x 421 km, 51.6° (Epoch: 21 October)

Date Brightness Start Highest point End Pass type
(mag) Time Alt. Az. Time Alt. Az. Time Alt. Az.
23 Oct -0.6 07:37:34 10° SSE 07:39:07 13° SE 07:40:39 10° ESE visible
25 Oct -1.7 07:35:23 10° SSW 07:38:18 27° SE 07:41:13 10° E visible
26 Oct -1.2 06:47:28 10° S 06:49:51 18° SE 06:52:14 10° E visible
27 Oct -0.8 05:00:46 11° SSE 05:01:27 12° SE 05:02:43 10° ESE visible
27 Oct -3.2 06:34:17 10° SW 06:37:36 57° SSE 06:40:55 10° ENE visible
28 Oct -2.6 05:47:32 24° SSW 05:49:03 38° SSE 05:52:12 10° ENE visible
29 Oct -1.6 05:01:15 23° ESE 05:01:15 23° ESE 05:03:22 10° E visible
29 Oct -3.8 06:34:09 14° WSW 06:37:01 79° NNW 06:40:24 10° ENE visible
30 Oct -3.8 05:47:44 55° SW 05:48:21 77° SSE 05:51:44 10° ENE visible
